[[{"header":{"parameterUnit":"m.s-1","parameterCategory":1,"la1":30.2991,"la2":30.254,"lo1":-89.0895,"lo2":-89.0444,"dy":0.0017,"dx":0.0017,"nx":28,"ny":28,"refTime":"2023-03-17T21:00:00:Z","depth":0,"parameterNumber":2,"parameterNumberName":"U-component_of_WINDS"},"data":[0,0,0,0,0,0,0,0,0,0,0,0,0,0,0,0,0,0,0,0,0,0,0,0,0,0,0,0,0,0,0,0,0,0,0,0,0,0,0,0,0,0,0,0,0,0,0,0,0,0,0,0,0,0,0,0,0,0,1.1374,1.1373,0,1.1261,1.1259,1.1258,1.1208,1.1208,1.1208,1.1209,1.1088,1.1085,1.1082,0,0,0,0,0,0,0,0,0,0,0,0,0,1.1544,1.1541,1.1374,1.1373,1.1371,1.1261,1.1259,1.1258,1.1208,1.1208,1.1208,1.1209,1.1089,1.1085,1.1081,0,0,0,0,0,0,0,0,0,0,0,0,0,1.1454,1.154,1.1375,1.1333,1.1329,1.1261,1.1259,1.1257,1.1208,1.1208,1.1209,1.1209,1.1091,1.1086,1.1081,1.1045,0,0,1.1065,1.1063,0,0,0,0,0,0,0,0,1.1459,1.1448,1.1341,1.1336,1.1331,1.1249,1.1275,1.1186,1.1208,1.1254,1.1209,1.1209,1.1141,1.1132,1.111,1.1039,1.1034,1.1065,1.1062,1.106,1.1058,0,0,0,0,0,0,0,1.1465,1.1452,1.1329,1.1339,1.1333,1.1319,1.1307,1.1258,1.1197,1.125,1.1246,1.1233,1.1138,1.1115,1.1107,1.1032,1.1065,1.1061,1.1058,1.1056,1.0925,1.0924,0,0,0,0,0,0,1.1479,1.1458,1.1333,1.1326,1.1397,1.1316,1.1302,1.1275,1.1198,1.1186,1.1233,1.1231,1.1124,1.1113,1.1102,1.1054,1.106,1.1055,1.1052,1.0925,1.0924,1.0924,0,0,0,0,0,0,1.1483,1.1468,1.1337,1.1391,1.1373,1.1313,1.1283,1.1272,1.1249,1.1185,1.1174,1.1221,1.1123,1.111,1.1059,1.1049,1.1053,1.1048,1.0926,1.0925,1.0924,1.0958,0,0,0,0,0,0,1.1488,1.147,1.1457,1.1391,1.137,1.1298,1.1282,1.127,1.1241,1.1238,1.1171,1.116,1.1122,1.1067,1.1055,1.1043,1.1044,1.0926,1.0925,1.0924,1.0958,1.0959,1.096,0,0,0,0,0,1.1494,1.147,1.1456,1.1441,1.1353,1.1297,1.1285,1.1244,1.1241,1.1226,1.1185,1.1162,1.1053,1.1063,1.1048,1.1034,1.0927,1.0926,1.0925,1.0957,1.0959,1.096,0,0,0,0,0,0,1.1535,1.1461,1.1445,1.1399,1.1355,1.1289,1.1269,1.1247,1.1202,1.1201,1.115,1.1136,1.109,1.1057,1.1069,1.0995,1.0988,1.0984,1.1018,1.1019,1.102,1.1028,1.104,0,0,0,0,0,1.1539,1.1501,1.1438,1.1404,1.1383,1.133,1.1304,1.1277,1.1228,1.1209,1.1164,1.1117,1.1072,1.1044,1.0999,1.0953,1.0937,1.0936,1.0938,1.0939,1.0935,1.0908,1.0906,1.0921,1.0921,1.0921,0,0,1.1546,1.1501,1.148,1.1411,1.1373,1.1334,1.1315,1.1274,1.1244,1.1202,1.1153,1.1118,1.1062,1.1014,1.0991,1.0985,1.0928,1.0937,1.0939,1.0935,1.0907,1.0905,1.0904,1.092,1.092,1.092,0,0,1.1539,1.1502,1.1469,1.1432,1.1376,1.1341,1.1333,1.1271,1.1247,1.1196,1.1164,1.1127,1.1051,1.1012,1.0983,1.0961,1.0938,1.0948,1.0953,1.0926,1.0925,1.0924,1.0915,1.0913,1.0945,1.0945,1.0945,0,1.1554,1.1495,1.1454,1.1415,1.1385,1.1347,1.1313,1.1279,1.1211,1.119,1.1186,1.1089,1.1049,1.0991,1.0986,1.0963,1.0951,1.0955,1.0929,1.0927,1.0925,1.0916,1.0913,1.0947,1.0946,1.0946,1.0946,0,1.1517,1.1476,1.1456,1.1393,1.1361,1.1324,1.1276,1.1248,1.1223,1.1188,1.1137,1.1087,1.1031,1.1016,1.0991,1.0954,1.0952,1.0939,1.0931,1.0926,1.0917,1.0913,1.0949,1.0948,1.0948,1.0947,0,0,1.1532,1.1446,1.1439,1.141,1.1346,1.1313,1.1274,1.1221,1.1197,1.1152,1.1117,1.1054,1.1041,1.1008,1.0978,1.0955,1.094,1.0944,1.0942,1.0944,1.0895,1.0904,1.0901,1.0924,1.0924,1.0923,1.0899,0,1.1515,1.1446,1.1407,1.1353,1.1314,1.1278,1.1244,1.12,1.1167,1.1128,1.109,1.1046,1.1033,1.1013,1.0988,1.0947,1.0929,1.0948,1.089,1.0888,1.0904,1.0896,1.0906,1.0886,1.0895,1.0894,1.0894,0,1.1486,1.1443,1.1385,1.1325,1.1307,1.1278,1.1225,1.1189,1.1138,1.1115,1.1078,1.1049,1.1005,1.1001,1.0939,1.0953,1.0927,1.0903,1.0902,1.0893,1.089,1.0887,1.0878,1.0875,1.0888,1.0888,1.0889,0,1.1502,1.1428,1.1384,1.136,1.1289,1.1269,1.1238,1.1188,1.1158,1.1112,1.1092,1.1041,1.1013,1.0973,1.093,1.0932,1.0872,1.0865,1.0851,1.0852,1.0839,1.084,1.0825,1.0824,1.0824,1.0824,1.0824,0,1.1487,1.1453,1.139,1.1363,1.1324,1.1279,1.1241,1.1207,1.1162,1.1126,1.1091,1.1058,1.1004,1.0964,1.093,1.0883,1.0871,1.085,1.0841,1.0853,1.0855,1.0834,1.0834,1.0823,1.0824,1.0824,1.0824,0,1.1497,1.1454,1.1403,1.1341,1.1324,1.1297,1.1243,1.1214,1.1179,1.1134,1.1121,1.1066,1.1017,1.097,1.0904,1.0881,1.0834,1.0823,1.0852,1.0847,1.0834,1.0836,1.0804,1.0797,1.0803,1.0803,1.0803,0,1.149,1.1463,1.1398,1.1372,1.1342,1.1301,1.1271,1.1226,1.1195,1.1135,1.1114,1.1062,1.1019,1.0942,1.0895,1.0844,1.083,1.0823,1.0822,1.0835,1.0829,1.0831,1.0827,1.0824,1.0824,1.0824,1.0824,0,1.1482,1.1462,1.142,1.1371,1.1336,1.1295,1.1252,1.1233,1.1179,1.1147,1.1097,1.1063,1.0997,1.0945,1.0889,1.0856,1.083,1.0825,1.0818,1.0829,1.0846,1.0836,1.0853,1.0825,1.0825,1.0825,1.0825,1.0825,1.1482,1.1456,1.1406,1.1361,1.1324,1.1285,1.1255,1.1217,1.1175,1.1118,1.1093,1.1042,1.0991,1.0913,1.088,1.0838,1.0833,1.0824,1.0821,1.082,1.0821,1.0854,1.0828,1.0828,1.0828,1.0828,1.0828,0,1.1471,1.1437,1.1396,1.1338,1.1302,1.1283,1.1235,1.1205,1.1161,1.1116,1.1075,1.1017,1.0967,1.0916,1.0863,1.0839,1.0826,1.0827,1.0827,1.082,1.083,1.084,1.0838,1.0838,1.0838,1.0838,1.0838,1.0838,1.1461,1.1416,1.139,1.1326,1.1291,1.1242,1.1216,1.118,1.1143,1.1081,1.104,1.1007,1.0959,1.0903,1.0856,1.0842,1.0823,1.0827,1.081,1.082,1.0819,1.0819,1.0828,1.0823,1.0823,1.0802,1.0802,1.0802]},{"header":{"parameterUnit":"m.s-1","parameterCategory":1,"la1":30.2991,"la2":30.254,"lo1":-89.0895,"lo2":-89.0444,"dy":0.0017,"dx":0.0017,"nx":28,"ny":28,"refTime":"2023-03-17T21:00:00:Z","depth":0,"parameterNumber":3,"parameterNumberName":"V-component_of_WINDS"},"data":[0,0,0,0,0,0,0,0,0,0,0,0,0,0,0,0,0,0,0,0,0,0,0,0,0,0,0,0,0,0,0,0,0,0,0,0,0,0,0,0,0,0,0,0,0,0,0,0,0,0,0,0,0,0,0,0,0,0,-3.8541,-3.8542,0,-3.8676,-3.8678,-3.868,-3.8626,-3.8623,-3.8619,-3.8616,-3.8753,-3.876,-3.8766,0,0,0,0,0,0,0,0,0,0,0,0,0,-3.8231,-3.8237,-3.854,-3.8542,-3.8544,-3.8676,-3.8678,-3.868,-3.8626,-3.8623,-3.8619,-3.8615,-3.8751,-3.8759,-3.8767,0,0,0,0,0,0,0,0,0,0,0,0,0,-3.8366,-3.8239,-3.854,-3.8533,-3.8534,-3.8676,-3.8678,-3.868,-3.8627,-3.8622,-3.8618,-3.8613,-3.8749,-3.8758,-3.8768,-3.8924,0,0,-3.8798,-3.8803,0,0,0,0,0,0,0,0,-3.8359,-3.8378,-3.8532,-3.8534,-3.8535,-3.8629,-3.8619,-3.8762,-3.8628,-3.8592,-3.8616,-3.8611,-3.8716,-3.8728,-3.8764,-3.8931,-3.8937,-3.8799,-3.8805,-3.8809,-3.8812,0,0,0,0,0,0,0,-3.8349,-3.8372,-3.8594,-3.8535,-3.8536,-3.8522,-3.8536,-3.8646,-3.8679,-3.8595,-3.8591,-3.8608,-3.8716,-3.8755,-3.8767,-3.8939,-3.8799,-3.8808,-3.8814,-3.8818,-3.9239,-3.9244,0,0,0,0,0,0,-3.834,-3.8364,-3.859,-3.8598,-3.8433,-3.8532,-3.8547,-3.8604,-3.8677,-3.8684,-3.8612,-3.8605,-3.874,-3.8755,-3.8771,-3.8959,-3.8809,-3.8819,-3.8824,-3.9234,-3.9241,-3.9246,0,0,0,0,0,0,-3.8334,-3.8361,-3.8584,-3.848,-3.8508,-3.8542,-3.8606,-3.8609,-3.8648,-3.869,-3.8696,-3.8646,-3.8737,-3.8757,-3.8887,-3.8963,-3.8823,-3.8832,-3.9228,-3.9236,-3.9243,-3.9337,0,0,0,0,0,0,-3.8325,-3.8359,-3.8419,-3.8482,-3.8514,-3.8699,-3.8611,-3.8615,-3.8666,-3.8658,-3.8724,-3.873,-3.8735,-3.8872,-3.8897,-3.8974,-3.884,-3.9221,-3.9232,-3.9241,-3.9327,-3.9347,-3.9364,0,0,0,0,0,-3.8314,-3.844,-3.8423,-3.845,-3.859,-3.8703,-3.8721,-3.8724,-3.8672,-3.8733,-3.876,-3.8728,-3.8951,-3.8886,-3.8913,-3.8995,-3.9217,-3.9229,-3.924,-3.9319,-3.9343,-3.9363,0,0,0,0,0,0,-3.8385,-3.8448,-3.843,-3.858,-3.8637,-3.8694,-3.8771,-3.875,-3.8823,-3.8812,-3.8812,-3.8827,-3.8961,-3.899,-3.8917,-3.915,-3.9075,-3.9093,-3.9126,-3.9149,-3.9167,-3.9158,-3.8848,0,0,0,0,0,-3.8418,-3.8505,-3.8555,-3.8683,-3.8712,-3.8737,-3.8786,-3.8784,-3.8842,-3.8866,-3.8902,-3.896,-3.9043,-3.9097,-3.9176,-3.933,-3.9344,-3.94,-3.9418,-3.9433,-3.9449,-3.9532,-3.9558,-3.9285,-3.9285,-3.9285,0,0,-3.8487,-3.8532,-3.8588,-3.8698,-3.8742,-3.8832,-3.8757,-3.8856,-3.8922,-3.8881,-3.9006,-3.9034,-3.9098,-3.9241,-3.9305,-3.9269,-3.9527,-3.9448,-3.946,-3.9468,-3.9547,-3.9573,-3.9596,-3.9293,-3.9292,-3.9291,0,0,-3.8659,-3.8702,-3.8813,-3.8859,-3.8926,-3.8941,-3.8968,-3.9029,-3.9046,-3.9172,-3.9142,-3.922,-3.9363,-3.941,-3.9452,-3.9641,-3.9615,-3.9666,-3.9763,-3.9845,-3.9866,-3.9885,-3.9953,-3.9977,-3.9681,-3.9682,-3.9682,0,-3.8737,-3.8872,-3.8873,-3.8974,-3.9023,-3.8989,-3.9101,-3.9145,-3.9234,-3.9269,-3.9227,-3.9405,-3.9446,-3.9599,-3.9645,-3.968,-3.971,-3.9659,-3.9863,-3.9882,-3.99,-3.9965,-3.999,-3.9687,-3.9687,-3.9686,-3.9686,0,-3.8964,-3.9058,-3.9139,-3.9228,-3.9286,-3.9391,-3.9407,-3.9466,-3.9457,-3.9477,-3.9604,-3.9651,-3.9739,-3.9774,-3.9767,-3.9927,-3.9902,-3.9862,-3.9788,-3.9932,-3.9993,-4.0017,-3.9696,-3.9694,-3.9692,-3.9691,0,0,-3.9187,-3.9273,-3.9303,-3.9342,-3.9414,-3.9486,-3.9589,-3.9676,-3.9726,-3.9788,-3.9875,-3.9995,-3.9959,-4.0007,-4.0004,-4.0075,-4.0222,-4.0026,-4.0028,-4.0062,-4.0401,-4.0432,-4.0461,-4.0204,-4.0209,-4.0213,-4.0396,0,-3.9366,-3.9549,-3.9552,-3.972,-3.9806,-3.9775,-3.9865,-3.9918,-3.9938,-4.0014,-4.0035,-4.0122,-4.0066,-4.0095,-4.0164,-4.019,-4.0291,-4.0176,-4.0285,-4.0289,-4.0272,-4.0492,-4.0526,-4.0697,-4.042,-4.0424,-4.0426,0,-3.9599,-3.967,-3.9847,-3.9905,-3.9941,-4.0023,-4.0102,-4.0174,-4.0233,-4.0242,-4.0296,-4.0282,-4.0387,-4.0308,-4.0452,-4.0374,-4.0418,-4.0437,-4.0444,-4.0456,-4.0368,-4.0511,-4.0751,-4.0777,-4.0464,-4.0461,-4.0458,0,-3.9745,-3.9884,-4.0008,-4.0042,-4.0113,-4.0171,-4.0203,-4.0257,-4.0308,-4.0376,-4.0409,-4.0489,-4.0532,-4.0593,-4.0601,-4.0543,-4.0746,-4.0667,-4.0756,-4.0757,-4.0802,-4.08,-4.1054,-4.0828,-4.0828,-4.0827,-4.0827,0,-3.9946,-4.0055,-4.0074,-4.0151,-4.0272,-4.0273,-4.0393,-4.042,-4.0468,-4.0549,-4.0525,-4.06,-4.0605,-4.0683,-4.0689,-4.0807,-4.0826,-4.0837,-4.0838,-4.084,-4.0839,-4.087,-4.0859,-4.0834,-4.0833,-4.0831,-4.083,0,-4.013,-4.0147,-4.028,-4.0336,-4.0353,-4.044,-4.0487,-4.0559,-4.0576,-4.0678,-4.0702,-4.0729,-4.0819,-4.0832,-4.0937,-4.0941,-4.1083,-4.107,-4.1064,-4.1063,-4.1151,-4.1143,-4.1436,-4.1475,-4.1223,-4.1225,-4.1227,0,-4.0258,-4.0342,-4.0406,-4.0459,-4.0494,-4.0579,-4.0631,-4.0634,-4.069,-4.0762,-4.0826,-4.0913,-4.0983,-4.1128,-4.1156,-4.1236,-4.1226,-4.1323,-4.1238,-4.1238,-4.1229,-4.1224,-4.1233,-4.134,-4.1343,-4.1345,-4.1347,0,-4.0483,-4.0487,-4.0564,-4.0644,-4.0707,-4.077,-4.0829,-4.0873,-4.0884,-4.0947,-4.1039,-4.1093,-4.12,-4.1287,-4.1366,-4.1397,-4.1374,-4.1373,-4.1398,-4.1402,-4.1396,-4.1401,-4.111,-4.1367,-4.1365,-4.1363,-4.1362,-4.1361,-4.0644,-4.0717,-4.0774,-4.086,-4.0905,-4.0961,-4.1031,-4.1057,-4.1134,-4.1222,-4.1219,-4.132,-4.1375,-4.1478,-4.1515,-4.1593,-4.1562,-4.1598,-4.1607,-4.1616,-4.1626,-4.1382,-4.1607,-4.1607,-4.1606,-4.1606,-4.1605,0,-4.0869,-4.0904,-4.0983,-4.1067,-4.1134,-4.1106,-4.117,-4.1228,-4.1318,-4.1371,-4.1441,-4.1546,-4.1629,-4.1664,-4.1746,-4.1802,-4.1793,-4.1823,-4.182,-4.1828,-4.1649,-4.162,-4.1829,-4.1829,-4.1829,-4.1829,-4.1829,-4.1829,-4.0994,-4.1116,-4.1127,-4.127,-4.1304,-4.1403,-4.1442,-4.1493,-4.1536,-4.1654,-4.1724,-4.1746,-4.1792,-4.1877,-4.1952,-4.196,-4.1991,-4.2027,-4.203,-4.1863,-4.184,-4.1819,-4.1791,-4.2033,-4.2033,-4.2202,-4.2204,-4.2205]}]]